This is the latest recevied weather packets stored in our database for station/object WP4PW. If no packets are shown the sender has not sent any weather packets the latest 10 day(s).
| Time | Temp. | Humidity | Pressure | Rain* | Wind** | Luminosity | Snow |
|---|---|---|---|---|---|---|---|
| 1778065548 | 27.78° C | 85% | 1022 hPa | 0 mm | - | 95 W/m² | - |
| 1778065245 | 27.78° C | 84% | 1022 hPa | 0 mm | - | 152 W/m² | - |
| 1778064941 | 27.78° C | 85% | 1021.9 hPa | 0 mm | - | 129 W/m² | - |
| 1778064638 | 27.78° C | 85% | 1021.7 hPa | 0 mm | - | 112 W/m² | - |
| 1778064336 | 27.78° C | 85% | 1022 hPa | 0 mm | - | 95 W/m² | - |
| 1778064034 | 27.22° C | 86% | 1022.1 hPa | 0 mm | - | 92 W/m² | - |
| 1778063731 | 27.22° C | 86% | 1021.9 hPa | 0 mm | - | 61 W/m² | - |
| 1778063427 | 26.67° C | 86% | 1021.8 hPa | 0 mm | - | 51 W/m² | - |
| 1778063126 | 27.22° C | 85% | 1021.7 hPa | 0 mm | - | 36 W/m² | - |
| 1778062823 | 26.67° C | 86% | 1021.7 hPa | 0 mm | - | 32 W/m² | - |
| 1778062519 | 26.67° C | 86% | 1021.6 hPa | 0 mm | - | 28 W/m² | - |
| 1778062216 | 26.67° C | 86% | 1021.6 hPa | 0 mm | - | 19 W/m² | - |
| 1778061915 | 26.67° C | 86% | 1021.6 hPa | 0 mm | - | 11 W/m² | - |
| 1778061613 | 26.67° C | 86% | 1021.7 hPa | 0 mm | - | 7 W/m² | - |
| 1778061311 | 26.67° C | 87% | 1021.7 hPa | 0 mm | - | 4 W/m² | - |
| 1778061006 | 26.67° C | 88% | 1021.7 hPa | 0 mm | - | 2 W/m² | - |
| 1778060705 | 26.67° C | 88% | 1021.4 hPa | 0 mm | - | 1 W/m² | - |
| 1778060403 | 26.67° C | 89% | 1021.5 hPa | 0 mm | - | 0 W/m² | - |
| 1778060101 | 26.67° C | 89% | 1021.3 hPa | 0 mm | - | 0 W/m² | - |
| 1778059798 | 26.67° C | 88% | 1021.4 hPa | 0 mm | - | 0 W/m² | - |
| 1778059496 | 26.67° C | 87% | 1021.5 hPa | 0 mm | - | 0 W/m² | - |
| 1778059192 | 26.67° C | 87% | 1021.5 hPa | 0 mm | - | 0 W/m² | - |
| 1778058890 | 26.67° C | 87% | 1021.2 hPa | 0 mm | - | 0 W/m² | - |
| 1778058587 | 26.67° C | 88% | 1021.2 hPa | 0 mm | - | 0 W/m² | - |
| 1778058285 | 26.67° C | 88% | 1021.2 hPa | 0 mm | - | 0 W/m² | - |
* Rain latest hour (hover to see other rain measurements)
** Current wind speed in m/s (hover to see current wind gust speed)